Location: Prescott
(34.5400°N, 112.4680°W)
Time: 13:51:59
(UTC-07:00)

Amateur Radio Satellites - All Passes

Search period start: 26 March 2017 13:21
Search period end: 27 March 2017 13:21
Location: Prescott, 34.5400°N, 112.4680°W

Satellite Date Start Highest point End Downlink Frequencies (MHz)
Time Altitude Azimuth
SO-50 26 Mar 13:25:28 13:28:34 18° 109° (ESE) 13:31:38 436.795
DX 1 26 Mar 13:44:16 13:48:33 53° 286° (WNW) 13:52:49 434.975-435.025
AO-7 26 Mar 13:55:10 14:01:53 28° 60° (ENE) 14:08:34 .
RS-15 26 Mar 13:56:26 14:07:51 48° 309° (NW) 14:19:43 29.354- 29.394
SRMSAT 26 Mar 13:56:39 14:00:05 16° 190° (S) 14:03:31 437.500
VELOX 1 26 Mar 14:09:06 14:10:54 12° 295° (WNW) 14:12:43 145.980
Oscar 19 26 Mar 14:17:46 14:21:38 22° 265° (W) 14:25:32 437.125/150
ITAMSAT 1 26 Mar 14:24:17 14:29:00 35° 70° (ENE) 14:33:43 435.822/435.867
UKube-1 26 Mar 14:25:04 14:28:40 26° 290° (WNW) 14:32:16 .
BEESAT 26 Mar 14:28:44 14:32:10 20° 95° (E) 14:35:37 436.000
Gurwin Techsat 1B 26 Mar 14:30:49 14:35:26 30° 263° (W) 14:40:07 435.225
NO-84 26 Mar 14:41:22 14:44:40 65° 229° (SW) 14:48:17 435.350 FM
ITUPSAT 1 26 Mar 14:44:22 14:48:29 29° 97° (E) 14:52:34 437.325
MOZHAYETS 4 26 Mar 14:47:44 14:49:15 11° 92° (E) 14:50:47
SO-50 26 Mar 15:04:16 15:08:41 41° 303° (WNW) 15:13:04 436.795
AO-7 26 Mar 15:45:52 15:54:04 60° 256° (WSW) 16:02:16 .
O/OREOS (USA 219) 26 Mar 16:03:56 16:07:55 31° 103° (ESE) 16:11:57 437.305
ITAMSAT 1 26 Mar 16:04:21 16:08:28 23° 264° (W) 16:12:36 435.822/435.867
KKS-1 26 Mar 16:04:33 16:07:27 17° 94° (E) 16:10:19 437.445
BEESAT 26 Mar 16:05:42 16:09:59 35° 289° (WNW) 16:14:15 436.000
RS-15 26 Mar 16:17:33 16:24:40 17° 339° (NNW) 16:31:52 29.354- 29.394
MOZHAYETS 4 26 Mar 16:22:15 16:26:41 53° 286° (WNW) 16:31:06
ITUPSAT 1 26 Mar 16:22:20 16:26:09 24° 291° (WNW) 16:29:57 437.325
STARS 26 Mar 16:40:32 16:43:33 18° 95° (E) 16:46:32 437.465
DOVE 4 26 Mar 17:09:40 17:13:44 31° 70° (ENE) 17:18:02 437.250
CUBESAT XI-V 26 Mar 17:14:18 17:18:59 85° 103° (ESE) 17:23:39 437.345
XW-2F 26 Mar 17:30:37 17:34:03 33° 74° (ENE) 17:37:28 145.980 - 146.000
LilacSat-2 26 Mar 17:32:01 17:35:35 38° 74° (ENE) 17:39:09 437.200
KKS-1 26 Mar 17:39:58 17:44:04 36° 288° (WNW) 17:48:09 437.445
O/OREOS (USA 219) 26 Mar 17:43:58 17:47:20 20° 299° (WNW) 17:50:45 437.305
HO-68 26 Mar 17:46:28 17:51:00 18° 60° (ENE) 17:55:32 435.675
CUTE-I 26 Mar 17:53:03 17:58:22 67° 74° (ENE) 18:03:43 437.470
NUDT-PHONESAT 26 Mar 17:55:26 17:59:08 60° 76° (ENE) 18:02:49 437.300
XW-2D 26 Mar 17:56:12 18:00:01 83° 77° (ENE) 18:03:49 145.860 - 145.880
XW-2B 26 Mar 18:02:08 18:05:57 84° 258° (WSW) 18:09:46 145.730 - 145.750
KAITUO 1B 26 Mar 18:02:49 18:06:34 78° 76° (ENE) 18:10:18 145.475/437.950
PCSat 26 Mar 18:07:01 18:11:30 25° 55° (NE) 18:15:57 145.827
XW-2A 26 Mar 18:08:22 18:09:18 11° 69° (ENE) 18:10:15 145.665 - 145.685
XW-2C 26 Mar 18:12:24 18:16:09 59° 260° (W) 18:19:55 145.795 - 145.815
STARS 26 Mar 18:15:57 18:19:55 33° 288° (WNW) 18:23:50 437.465
YUBILEINY 26 Mar 18:17:56 18:26:14 47° 78° (ENE) 18:34:31 435.215
SEEDS 26 Mar 18:28:45 18:30:22 12° 67° (ENE) 18:32:00 437.485
M-CUBED/EXP-1 PRIME 26 Mar 18:33:49 18:38:16 43° 103° (ESE) 18:42:40 437.505
CUTE 1.7 + AOD 2 26 Mar 18:34:02 18:37:19 23° 71° (ENE) 18:40:37 437.475
RS-15 26 Mar 18:38:10 18:44:53 16° 18° (NNE) 18:51:30 29.354- 29.394
DOVE 4 26 Mar 18:47:54 18:51:26 22° 267° (W) 18:55:09 437.250
XW-2F 26 Mar 19:06:33 19:08:16 13° 267° (W) 19:09:57 145.980 - 146.000
LilacSat-2 26 Mar 19:08:50 19:09:59 11° 267° (W) 19:11:08 437.200
UWE-3 26 Mar 19:19:50 19:23:27 23° 70° (ENE) 19:27:02 435.000/436.395/437.385
HO-68 26 Mar 19:30:46 19:37:55 76° 256° (WSW) 19:45:05 435.675
CUTE-I 26 Mar 19:36:37 19:38:49 12° 268° (W) 19:40:59 437.470
XW-2A 26 Mar 19:38:35 19:41:42 32° 262° (W) 19:44:51 145.665 - 145.685
AAUSAT CUBESAT 2 26 Mar 19:45:28 19:49:24 47° 74° (ENE) 19:53:20 437.432
Tancredo 1 26 Mar 19:45:35 19:48:39 54° 134° (SE) 19:51:45 437.200
ISS 26 Mar 19:46:25 19:49:33 47° 133° (SE) 19:52:42 437.550
STRAND 1 26 Mar 19:47:08 19:52:15 69° 102° (ESE) 19:57:18 437.568
PCSat 26 Mar 19:49:56 19:54:57 39° 250° (WSW) 19:59:56 145.827
CUBEBUG 2 26 Mar 19:52:34 19:57:19 88° 75° (ENE) 20:02:05 437.445
Oscar 11 26 Mar 19:52:46 19:56:01 21° 70° (ENE) 19:59:17 .
ZACube-1 26 Mar 19:59:35 20:03:43 35° 73° (ENE) 20:07:49 437.345
SEEDS 26 Mar 20:01:37 20:05:37 45° 261° (W) 20:09:37 437.485
M-CUBED/EXP-1 PRIME 26 Mar 20:09:09 20:12:19 18° 297° (WNW) 20:15:29 437.505
CUTE 1.7 + AOD 2 26 Mar 20:09:37 20:13:01 24° 264° (W) 20:16:26 437.475
YUBILEINY 26 Mar 20:15:15 20:22:39 32° 275° (W) 20:30:03 435.215
AO-73 26 Mar 20:27:26 20:31:56 67° 77° (ENE) 20:36:25 145.935
AO-85 26 Mar 20:45:35 20:50:04 65° 299° (WNW) 20:54:15 145.980
RS-15 26 Mar 20:50:28 21:02:02 44° 49° (NE) 21:13:04 29.354- 29.394
UWE-3 26 Mar 20:55:36 20:59:41 30° 263° (W) 21:03:45 435.000/436.395/437.385
PRISM 26 Mar 20:59:30 21:00:48 11° 93° (E) 21:02:07 437.425
DELFI C3 26 Mar 21:02:59 21:06:36 37° 73° (ENE) 21:10:14 145.870
BEESAT 3 26 Mar 21:20:15 21:23:24 24° 111° (ESE) 21:26:34 437.485
Tancredo 1 26 Mar 21:23:07 21:25:01 15° 330° (NNW) 21:26:55 437.200
ISS 26 Mar 21:23:59 21:26:11 17° 329° (NNW) 21:28:24 437.550
AAUSAT CUBESAT 2 26 Mar 21:24:22 21:25:04 10° 268° (W) 21:25:47 437.432
Oscar 11 26 Mar 21:28:19 21:31:58 27° 264° (W) 21:35:38 .
STRAND 1 26 Mar 21:28:47 21:30:46 12° 297° (WNW) 21:32:45 437.568
ZACube-1 26 Mar 21:36:55 21:40:02 18° 266° (W) 21:43:07 437.345
BEESAT 2 26 Mar 21:37:48 21:39:46 13° 108° (ESE) 21:41:44 435.950
TIGRISAT 26 Mar 21:41:30 21:44:19 17° 93° (E) 21:47:07 435.000
UNISAT 6 26 Mar 21:51:08 21:54:43 24° 96° (E) 21:58:12 437.425
ESTCUBE 1 26 Mar 22:14:39 22:17:33 17° 68° (ENE) 22:20:26 437.505/2401.250
LO-87 26 Mar 22:31:52 22:35:19 48° 75° (ENE) 22:38:49 145.935 - 145.965
PRISM 26 Mar 22:32:17 22:36:17 46° 286° (WNW) 22:40:15 437.425
DELFI C3 26 Mar 22:40:00 22:41:30 12° 267° (W) 22:43:01 145.870
BEESAT 3 26 Mar 22:57:44 23:00:53 23° 307° (NW) 23:04:05 437.485
RS-15 26 Mar 23:03:07 23:14:43 54° 251° (WSW) 23:25:47 29.354- 29.394
FO-29 26 Mar 23:13:19 23:19:13 84° 284° (WNW) 23:24:32 435.910
BEESAT 2 26 Mar 23:13:27 23:17:08 39° 303° (WNW) 23:20:54 435.950
AIST 2D 26 Mar 23:15:19 23:18:14 25° 97° (E) 23:21:09 435.315
TIGRISAT 26 Mar 23:17:09 23:21:04 33° 288° (WNW) 23:24:55 435.000
VELOX 1 26 Mar 23:24:31 23:28:20 30° 71° (ENE) 23:32:11 145.980
50 SAT 26 Mar 23:27:37 23:29:40 15° 70° (ENE) 23:31:44 437.505
UNISAT 6 26 Mar 23:27:48 23:31:18 24° 290° (WNW) 23:34:44 437.425
SO-50 26 Mar 23:38:34 23:43:02 63° 59° (ENE) 23:47:29 436.795
UKube-1 26 Mar 23:41:54 23:43:46 13° 66° (ENE) 23:45:37 .
NANOSAT C BR1 26 Mar 23:47:32 23:51:21 33° 98° (E) 23:55:09 145.865
ESTCUBE 1 26 Mar 23:49:53 23:54:01 37° 262° (W) 23:58:10 437.505/2401.250
EO-79 26 Mar 23:52:13 23:56:14 42° 99° (E) 00:00:13 145.935-145.965
SPROUT 27 Mar 00:05:14 00:09:31 79° 77° (ENE) 00:13:50 437.525
POLYITAN 1 27 Mar 00:20:19 00:24:33 84° 283° (WNW) 00:28:45 437.675
QB50P2 27 Mar 00:24:59 00:29:12 67° 284° (WNW) 00:33:22 145.880/145.840
DX 1 27 Mar 00:35:47 00:40:07 82° 75° (ENE) 00:44:29 434.975-435.025
DUCHIFAT 1 27 Mar 00:36:31 00:40:42 65° 285° (WNW) 00:44:49 145.980
AIST 2D 27 Mar 00:49:20 00:51:12 14° 290° (WNW) 00:53:04 435.315
BUGSAT 1 27 Mar 00:50:55 00:55:01 54° 100° (E) 00:59:01 437.445
Oscar 19 27 Mar 00:53:36 00:56:55 17° 94° (E) 01:00:12 437.125/150
50 SAT 27 Mar 00:59:44 01:02:30 22° 263° (W) 01:05:17 437.505
VELOX 1 27 Mar 01:01:34 01:04:46 20° 265° (W) 01:08:00 145.980
Gurwin Techsat 1B 27 Mar 01:12:03 01:14:48 14° 92° (E) 01:17:33 435.225
UKube-1 27 Mar 01:15:10 01:19:19 48° 260° (W) 01:23:31 .
SO-50 27 Mar 01:22:16 01:22:54 10° 253° (WSW) 01:23:33 436.795
NANOSAT C BR1 27 Mar 01:24:05 01:26:47 17° 292° (WNW) 01:29:26 145.865
EO-79 27 Mar 01:29:29 01:31:35 14° 293° (WNW) 01:33:40 145.935-145.965
BEESAT 27 Mar 01:32:22 01:35:18 16° 66° (ENE) 01:38:15 436.000
ITUPSAT 1 27 Mar 01:47:58 01:51:44 24° 69° (ENE) 01:55:31 437.325
Tancredo 1 27 Mar 02:15:28 02:17:29 15° 30° (NNE) 02:19:30 437.200
O/OREOS (USA 219) 27 Mar 02:17:05 02:21:18 35° 65° (ENE) 02:25:30 437.305
ISS 27 Mar 02:17:41 02:19:43 15° 30° (NNE) 02:21:45 437.550
BUGSAT 1 27 Mar 02:29:06 02:29:49 10° 295° (WNW) 02:30:32 437.445
Oscar 19 27 Mar 02:31:27 02:36:24 47° 288° (WNW) 02:41:21 437.125/150
ITAMSAT 1 27 Mar 02:41:45 02:44:55 16° 94° (E) 02:48:03 435.822/435.867
Gurwin Techsat 1B 27 Mar 02:49:50 02:55:04 58° 287° (WNW) 03:00:16 435.225
KKS-1 27 Mar 03:01:14 03:02:14 11° 64° (ENE) 03:03:15 437.445
BEESAT 27 Mar 03:08:07 03:12:40 45° 260° (W) 03:17:15 436.000
MOZHAYETS 4 27 Mar 03:20:02 03:24:38 87° 258° (WSW) 03:29:15
ITUPSAT 1 27 Mar 03:25:10 03:29:22 30° 262° (W) 03:33:35 437.325
STARS 27 Mar 03:35:37 03:36:49 11° 64° (ENE) 03:38:01 437.465
Tancredo 1 27 Mar 03:50:42 03:53:50 52° 225° (SW) 03:56:56 437.200
AO-7 27 Mar 03:51:18 03:59:28 60° 104° (ESE) 04:07:37 .
ISS 27 Mar 03:53:12 03:56:26 58° 226° (SW) 03:59:41 437.550
O/OREOS (USA 219) 27 Mar 03:57:16 04:00:24 18° 260° (W) 04:03:30 437.305
CUBESAT XI-V 27 Mar 04:13:54 04:18:21 53° 74° (ENE) 04:22:50 437.345
ITAMSAT 1 27 Mar 04:19:36 04:24:36 49° 288° (WNW) 04:29:34 435.822/435.867
KKS-1 27 Mar 04:33:49 04:38:12 62° 259° (W) 04:42:39 437.445
STARS 27 Mar 05:08:14 05:12:35 59° 259° (W) 05:16:59 437.465
DOVE 4 27 Mar 05:13:25 05:15:54 13° 90° (E) 05:18:21 437.250
M-CUBED/EXP-1 PRIME 27 Mar 05:17:10 05:20:12 25° 65° (ENE) 05:23:25 437.505
AO-85 27 Mar 05:20:10 05:23:46 33° 56° (ENE) 05:27:28 145.980
XW-2D 27 Mar 05:34:44 05:35:35 11° 92° (E) 05:36:26 145.860 - 145.880
XW-2B 27 Mar 05:39:59 05:41:35 12° 93° (E) 05:43:10 145.730 - 145.750
AO-7 27 Mar 05:45:01 05:51:40 28° 300° (WNW) 05:58:19 .
XW-2C 27 Mar 05:49:23 05:51:53 17° 95° (E) 05:54:22 145.795 - 145.815
CUBESAT XI-V 27 Mar 05:54:22 05:55:59 12° 268° (W) 05:57:37 437.345
NO-84 27 Mar 05:57:07 06:00:02 67° 131° (SE) 06:02:51 435.350 FM
CUTE-I 27 Mar 06:14:01 06:18:54 35° 98° (E) 06:23:43 437.470
JUGNU 27 Mar 06:16:04 06:17:19 11° 164° (SSE) 06:18:35 437.505
XW-2F 27 Mar 06:39:47 06:43:31 84° 102° (ESE) 06:47:14 145.980 - 146.000
LilacSat-2 27 Mar 06:42:27 06:46:13 82° 282° (WNW) 06:49:58 437.200
DOVE 4 27 Mar 06:48:41 06:53:56 62° 285° (WNW) 06:59:01 437.250
M-CUBED/EXP-1 PRIME 27 Mar 06:52:08 06:54:38 18° 262° (W) 06:57:17 437.505
STRAND 1 27 Mar 06:59:18 07:04:24 69° 75° (ENE) 07:09:31 437.568
AO-85 27 Mar 07:01:25 07:03:52 16° 249° (WSW) 07:06:23 145.980
NUDT-PHONESAT 27 Mar 07:03:12 07:06:47 55° 285° (WNW) 07:10:22 437.300
HO-68 27 Mar 07:03:15 07:08:58 25° 96° (E) 07:14:40 435.675
XW-2A 27 Mar 07:04:33 07:06:48 17° 95° (E) 07:09:02 145.665 - 145.685
XW-2D 27 Mar 07:06:26 07:09:55 37° 286° (WNW) 07:13:23 145.860 - 145.880
KAITUO 1B 27 Mar 07:11:30 07:14:59 41° 285° (WNW) 07:18:29 145.475/437.950
XW-2B 27 Mar 07:12:29 07:15:52 32° 286° (WNW) 07:19:13 145.730 - 145.750
YUBILEINY 27 Mar 07:13:56 07:22:29 61° 91° (E) 07:31:00 435.215
BEESAT 3 27 Mar 07:16:44 07:20:44 64° 60° (ENE) 07:24:40 437.485
XW-2C 27 Mar 07:22:59 07:26:01 24° 288° (WNW) 07:29:03 145.795 - 145.815
BEESAT 2 27 Mar 07:34:09 07:37:56 36° 57° (ENE) 07:41:40 435.950
CUBEBUG 2 27 Mar 07:47:59 07:51:26 23° 95° (E) 07:54:47 437.445
SEEDS 27 Mar 07:48:45 07:52:37 35° 98° (E) 07:56:27 437.485
CUTE-I 27 Mar 07:54:27 07:58:42 25° 293° (WNW) 08:02:57 437.470
CUTE 1.7 + AOD 2 27 Mar 07:56:49 08:01:02 74° 100° (E) 08:05:15 437.475
JUGNU 27 Mar 08:01:47 08:05:34 18° 174° (S) 08:09:23 437.505
AO-73 27 Mar 08:20:26 08:22:55 15° 93° (E) 08:25:22 145.935
XW-2A 27 Mar 08:37:01 08:39:27 19° 289° (WNW) 08:41:53 145.665 - 145.685
TIGRISAT 27 Mar 08:38:02 08:39:37 12° 65° (ENE) 08:41:12 435.000
STRAND 1 27 Mar 08:42:30 08:43:59 11° 269° (W) 08:45:27 437.568
PCSat 27 Mar 08:44:32 08:49:38 45° 111° (ESE) 08:54:47 145.827
UNISAT 6 27 Mar 08:47:02 08:49:55 16° 67° (ENE) 08:52:46 437.425
UWE-3 27 Mar 08:48:18 08:52:34 74° 100° (E) 08:56:43 435.000/436.395/437.385
HO-68 27 Mar 08:50:01 08:56:54 52° 291° (WNW) 09:03:47 435.675
AAUSAT CUBESAT 2 27 Mar 09:06:04 09:10:06 53° 285° (WNW) 09:14:09 437.432
YUBILEINY 27 Mar 09:12:53 09:19:44 25° 289° (WNW) 09:26:37 435.215
BEESAT 2 27 Mar 09:13:00 09:15:21 15° 251° (WSW) 09:17:42 435.950
PRISM 27 Mar 09:17:34 09:21:36 73° 75° (ENE) 09:25:40 437.425
Oscar 11 27 Mar 09:18:05 09:22:23 70° 101° (E) 09:26:40 .
FO-29 27 Mar 09:19:41 09:26:30 34° 68° (ENE) 09:32:59 435.910
CUBEBUG 2 27 Mar 09:24:26 09:27:57 24° 290° (WNW) 09:31:22 437.445
SEEDS 27 Mar 09:25:27 09:27:58 16° 292° (WNW) 09:30:29 437.485
ZACube-1 27 Mar 09:27:14 09:31:25 67° 283° (WNW) 09:35:30 437.345
JUGNU 27 Mar 09:49:58 09:53:53 18° 184° (S) 09:57:50 437.505
AO-73 27 Mar 09:55:28 09:59:14 33° 287° (WNW) 10:02:56 145.935
SRMSAT 27 Mar 10:06:31 10:10:09 16° 171° (S) 10:13:47 437.500
TIGRISAT 27 Mar 10:11:04 10:15:43 63° 259° (W) 10:20:21 435.000
DELFI C3 27 Mar 10:17:39 10:21:38 76° 283° (WNW) 10:25:37 145.870
UNISAT 6 27 Mar 10:21:45 10:26:13 43° 261° (W) 10:30:41 437.425
PCSat 27 Mar 10:29:01 10:33:13 22° 307° (NW) 10:37:26 145.827
NANOSAT C BR1 27 Mar 10:37:00 10:39:43 17° 68° (ENE) 10:42:25 145.865
EO-79 27 Mar 10:41:38 10:44:49 21° 69° (ENE) 10:48:01 145.935-145.965
FO-29 27 Mar 11:03:47 11:11:13 46° 261° (W) 11:18:21 435.910
POLYITAN 1 27 Mar 11:09:02 11:13:06 44° 74° (ENE) 11:17:11 437.675
RS-15 27 Mar 11:09:24 11:19:43 37° 105° (ESE) 11:30:21 29.354- 29.394
QB50P2 27 Mar 11:13:35 11:17:45 54° 75° (ENE) 11:21:57 145.880/145.840
AIST 2D 27 Mar 11:18:29 11:22:00 69° 259° (W) 11:25:32 435.315
DUCHIFAT 1 27 Mar 11:24:18 11:28:26 54° 75° (ENE) 11:32:37 145.980
LO-87 27 Mar 11:35:26 11:39:05 76° 282° (WNW) 11:42:42 145.935 - 145.965
BUGSAT 1 27 Mar 11:37:19 11:40:43 24° 70° (ENE) 11:44:08 437.445
JUGNU 27 Mar 11:39:54 11:42:10 12° 194° (SSW) 11:44:27 437.505
ESTCUBE 1 27 Mar 11:45:17 11:49:45 58° 101° (E) 11:54:11 437.505/2401.250
SRMSAT 27 Mar 11:54:28 11:58:38 19° 181° (S) 12:02:46 437.500
SPROUT 27 Mar 11:55:34 11:58:24 17° 94° (E) 12:01:12 437.525
Oscar 19 27 Mar 12:07:22 12:10:45 18° 66° (ENE) 12:14:08 437.125/150
NANOSAT C BR1 27 Mar 12:11:14 12:15:06 34° 262° (W) 12:19:01 145.865
EO-79 27 Mar 12:16:44 12:20:23 27° 263° (W) 12:24:02 145.935-145.965
50 SAT 27 Mar 12:26:54 12:29:52 26° 97° (E) 12:32:51 437.505
DX 1 27 Mar 12:28:22 12:31:26 18° 95° (E) 12:34:28 434.975-435.025
Gurwin Techsat 1B 27 Mar 12:29:42 12:33:05 17° 65° (ENE) 12:36:28 435.225
POLYITAN 1 27 Mar 12:47:10 12:49:03 13° 267° (W) 12:50:57 437.675
VELOX 1 27 Mar 12:53:29 12:57:58 82° 283° (WNW) 13:02:25 145.980
AO-7 27 Mar 13:01:37 13:03:13 11° 49° (NE) 13:04:49 .
UKube-1 27 Mar 13:05:38 13:09:35 34° 98° (E) 13:13:32 .
BUGSAT 1 27 Mar 13:12:34 13:15:57 23° 264° (W) 13:19:22 437.445
